Regional Weather Roundup
Issued by NWS

Home | Current Version | Previous Version | Text Only | Print | Product List | Glossary On
Versions: 1 2 3 4 5 6 7 8 9 10 11 12 13 14 15 16 17 18 19 20 21 22 23 24 25 26 27 28
000
ASUS42 KKEY 190710
RWRKEY

FLORIDA REGIONAL WEATHER ROUNDUP FOR THE FLORIDA KEYS
NATIONAL WEATHER SERVICE KEY WEST FLORIDA
200 AM EST SUN NOV 19 2017

...SOUTH FLORIDA AND THE KEYS...

CITY           SKY/WX    TMP DP  RH WIND       PRES   REMARKS
FORT MYERS     PTCLDY    63  61  93 CALM      29.95F
SW REGIONAL AP PTCLDY    63  63 100 CALM      29.96F
NAPLES         CLEAR     63  61  93 CALM      29.96S
MIAMI          PTCLDY    71  67  87 NW3       29.95S
WEST KENDALL   CLEAR     63  63 100 CALM      29.95S
HOMESTEAD      CLEAR     65  65 100 CALM      29.94S
MARATHON       CLEAR     74  67  78 N7        29.94F
KEY WEST INTL  CLEAR     72  69  90 N3        29.96S

...INTERNATIONAL WEATHER...

CITY           SKY/WX    TMP DP  RH WIND       PRES   REMARKS
NASSAU BAHAMAS NOT AVBL
CANCUN MEXICO  PTCLDY    68  68 100 CALM      29.95F
COZUMEL MEXICO PTCLDY    70  68  94 CALM      29.92F

ADJACENT COASTAL WATERS...

STATION/POSITION TIME  SKY/WX   TEMP    WIND        PRES    WAVE
                                AIR SEA DIR/SP/G            HT/PER
                 (UTC)          (F)     (DEG/KT/KT) (MB)    (FT/S)
PULASKI SHOAL LI 0700            75        CALM     1014.8S
SAND KEY         0650            74                 1015.0S
LONG KEY         NOT AVBL
MOLASSES REEF    0700            76 79   CALM  /  1 1014.1F
FOWEY ROCKS      0700            74 76  300/  7/  7 1014.6F
Buoy 42097       0630               78                N/A     1/ 4

$$




USA.gov is the U.S. government's official web portal to all federal, state and local government web resources and services.